CW2927 Weather Reports


time (UTC)temp
C
wind
direction
speed
KPH
gust
KPH
rain 1hr
cm
rain 24hr
cm
rain mn
cm
humidity
%
barometer
mb
20260507212205 10 318 16.1 29.0 0.00 0.00 0.00 56 1005.2
20260507210705 10 265 16.1 24.1 0.00 0.00 0.00 55 1005.0
20260507210205 10 281 8.0 25.7 0.00 0.00 0.00 58 1005.0
20260507204704 10 277 11.3 32.2 0.00 0.00 0.00 54 1005.1
20260507204204 10 292 20.9 32.2 0.00 0.00 0.00 52 1005.0
20260507202704 10 302 19.3 27.4 0.00 0.00 0.00 52 1004.8
20260507202204 10 274 9.7 32.2 0.00 0.00 0.00 52 1004.8
20260507200704 11 261 9.7 29.0 0.00 0.00 0.00 49 1004.7
20260507200204 11 293 14.5 29.0 0.00 0.00 0.00 49 1004.6
20260507194705 11 246 9.7 25.7 0.00 0.00 0.00 51 1004.5
20260507194204 11 229 11.3 27.4 0.00 0.00 0.00 51 1004.5
20260507192705 10 231 9.7 27.4 0.00 0.00 0.00 54 1004.5
20260507192205 10 296 11.3 27.4 0.00 0.00 0.00 53 1004.5
20260507190705 10 260 11.3 25.7 0.00 0.00 0.00 52 1004.5
20260507184704 10 266 6.4 24.1 0.00 0.00 0.00 55 1004.6
20260507184204 10 284 14.5 27.4 0.00 0.00 0.00 53 1004.6
20260507182705 10 302 9.7 27.4 0.00 0.00 0.00 55 1004.4
20260507182205 10 250 11.3 27.4 0.00 0.00 0.00 57 1004.5
20260507180704 10 301 8.0 25.7 0.00 0.03 0.00 58 1004.5
20260507180204 10 271 11.3 32.2 0.00 0.03 0.00 56 1004.5
20260507174705 11 232 11.3 25.7 0.00 0.03 0.00 58 1004.4
20260507174204 10 239 8.0 27.4 0.00 0.03 0.00 58 1004.4
20260507172705 11 234 8.0 24.1 0.00 0.03 0.00 58 1004.5
20260507172204 10 206 8.0 25.7 0.00 0.03 0.00 60 1004.6
20260507170704 10 227 9.7 25.7 0.00 0.05 0.00 60 1004.6
20260507170205 10 242 9.7 27.4 0.00 0.05 0.00 58 1004.8
20260507164704 11 232 11.3 22.5 0.00 0.05 0.00 60 1004.8
20260507164204 11 202 11.3 25.7 0.00 0.08 0.00 60 1004.9
20260507162704 11 230 9.7 20.9 0.00 0.10 0.00 61 1005.0
20260507162206 10 244 14.5 29.0 0.00 0.13 0.00 60 1005.0
20260507160704 10 232 9.7 27.4 0.00 0.15 0.00 61 1005.1
20260507154704 10 229 9.7 19.3 0.00 0.18 0.00 61 1005.1
20260507154204 10 230 9.7 24.1 0.00 0.18 0.00 62 1005.2
20260507152704 10 205 9.7 20.9 0.00 0.23 0.00 64 1005.1
20260507152205 10 208 8.0 29.0 0.00 0.23 0.00 67 1005.1
20260507150704 10 183 9.7 25.7 0.00 0.25 0.00 68 1005.3
20260507150204 10 229 8.0 29.0 0.00 0.28 0.00 70 1005.3
20260507144704 9 190 6.4 12.9 0.00 0.33 0.00 73 1005.3
20260507144204 8 225 9.7 32.2 0.00 0.33 0.00 73 1005.3
20260507142704 8 210 8.0 22.5 0.00 0.38 0.00 72 1005.4
20260507142204 8 211 8.0 29.0 0.00 0.41 0.00 74 1005.4
20260507140706 7 207 8.0 16.1 0.00 0.43 0.00 81 1005.4
20260507140204 7 221 8.0 16.1 0.00 0.43 0.00 83 1005.5
20260507134704 6 231 4.8 12.9 0.00 0.43 0.00 82 1005.5
20260507134204 6 214 4.8 14.5 0.00 0.46 0.00 85 1005.5
20260507132704 6 194 8.0 12.9 0.00 0.51 0.00 87 1005.6
20260507132204 6 197 8.0 16.1 0.00 0.51 0.00 87 1005.6
20260507130704 6 199 6.4 14.5 0.00 0.56 0.00 89 1005.7
20260507130204 6 196 6.4 16.1 0.00 0.56 0.00 88 1005.7
20260507124704 6 236 8.0 14.5 0.00 0.61 0.00 89 1005.7
20260507124204 6 196 8.0 16.1 0.00 0.61 0.00 90 1005.8
20260507122705 6 205 8.0 20.9 0.00 0.64 0.00 90 1005.6
20260507120704 7 211 6.4 12.9 0.00 0.71 0.00 89 1005.5
20260507120204 7 214 6.4 19.3 0.00 0.71 0.00 89 1005.5
20260507114704 6 221 8.0 16.1 0.00 0.76 0.00 90 1005.3
20260507114204 6 177 8.0 19.3 0.00 0.79 0.00 91 1005.2
20260507112704 6 175 9.7 16.1 0.00 0.81 0.00 91 1005.3
20260507112204 6 193 4.8 16.1 0.00 0.84 0.00 91 1005.4
20260507110703 6 196 8.0 12.9 0.00 0.84 0.00 92 1005.3
20260507110204 6 190 8.0 16.1 0.00 0.84 0.00 92 1005.3
20260507104704 6 183 6.4 11.3 0.00 0.89 0.00 92 1005.4
20260507102704 6 233 4.8 11.3 0.00 0.89 0.00 93 1005.6
20260507102204 6 216 8.0 12.9 0.00 0.89 0.00 92 1005.5
20260507100704 5 179 4.8 12.9 0.00 0.89 0.00 93 1005.4
20260507100204 5 185 8.0 16.1 0.00 0.89 0.00 93 1005.3
20260507094704 5 178 6.4 14.5 0.00 0.89 0.00 92 1005.1
20260507094204 5 181 4.8 9.7 0.00 0.89 0.00 92 1005.1
20260507092704 5 182 4.8 11.3 0.00 0.89 0.00 92 1005.0
20260507092203 5 188 3.2 11.3 0.00 0.89 0.00 92 1005.2
20260507090704 5 177 4.8 9.7 0.00 0.89 0.00 92 1005.1
20260507090204 5 175 3.2 12.9 0.00 0.89 0.00 92 1005.2
20260507084704 5 181 6.4 12.9 0.00 0.89 0.00 92 1005.4
20260507082704 5 183 6.4 12.9 0.00 0.89 0.00 92 1005.6
20260507080704 5 178 4.8 8.0 0.00 0.89 0.00 92 1005.5
20260507080204 5 177 4.8 14.5 0.00 0.89 0.00 92 1005.5
20260507074705 5 176 6.4 16.1 0.00 0.89 0.00 92 1005.6
20260507074205 5 184 4.8 19.3 0.00 0.89 0.00 92 1005.6
20260507072706 5 173 4.8 11.3 0.00 0.89 0.00 92 1005.5
20260507072206 5 172 4.8 11.3 0.00 0.89 0.00 92 1005.5
20260507070705 5 173 4.8 12.9 0.00 0.89 0.00 92 1005.5
20260507070206 5 172 4.8 14.5 0.00 0.89 0.00 92 1005.5
20260507064705 5 176 3.2 8.0 0.00 0.89 0.00 92 1005.6
20260507064205 5 177 4.8 11.3 0.00 0.89 0.00 92 1005.6
20260507062705 5 176 4.8 9.7 0.00 0.89 0.00 92 1005.7
20260507062205 5 177 4.8 11.3 0.00 0.89 0.00 92 1005.7
20260507060705 5 173 3.2 8.0 0.00 0.89 0.00 92 1005.8
20260507060204 5 173 4.8 9.7 0.00 0.89 0.00 92 1005.8
20260507054705 5 174 4.8 9.7 0.00 0.89 0.00 91 1006.0
20260507054205 5 174 4.8 12.9 0.00 0.89 0.00 91 1006.0
20260507052705 5 176 4.8 11.3 0.00 0.89 0.00 91 1006.4
20260507052204 5 174 6.4 16.1 0.00 0.89 0.00 91 1006.5
20260507050705 5 176 4.8 8.0 0.00 0.89 0.00 91 1006.6
20260507050205 5 177 4.8 9.7 0.00 0.89 0.00 91 1006.7
20260507044705 5 178 3.2 8.0 0.00 0.89 0.00 91 1006.8
20260507044205 5 178 4.8 9.7 0.00 0.89 0.00 91 1006.9
20260507042705 5 181 3.2 8.0 0.00 0.89 0.00 91 1007.0
20260507042206 5 182 4.8 11.3 0.00 0.89 0.00 91 1007.0
20260507040705 5 198 3.2 8.0 0.00 0.89 0.00 91 1007.2
20260507040205 5 198 4.8 9.7 0.00 0.89 0.00 91 1007.2
20260507034705 6 200 4.8 9.7 0.00 0.89 0.89 91 1007.2
20260507034205 6 207 3.2 9.7 0.00 0.89 0.89 91 1007.2
20260507032705 6 230 3.2 4.8 0.00 0.89 0.89 91 1007.3
20260507032205 6 231 3.2 4.8 0.00 0.89 0.89 91 1007.3
20260507030705 6 231 1.6 3.2 0.00 0.89 0.89 90 1007.3
20260507030205 6 231 1.6 4.8 0.00 0.89 0.89 91 1007.3
20260507024705 6 231 1.6 3.2 0.00 0.89 0.89 90 1007.4
20260507024204 6 231 3.2 4.8 0.00 0.89 0.89 90 1007.5
20260507022205 6 235 1.6 3.2 0.00 0.91 0.89 90 1007.7
20260507020705 6 235 0.0 0.0 0.00 0.91 0.89 90 1007.7
20260507020205 6 235 1.6 3.2 0.00 0.91 0.89 90 1007.7
20260507014705 6 235 1.6 3.2 0.00 0.91 0.89 90 1007.7
20260507014204 6 235 1.6 4.8 0.00 0.91 0.89 90 1007.8
20260507012705 6 235 3.2 4.8 0.00 0.91 0.89 90 1007.8
20260507012205 6 235 1.6 3.2 0.00 0.91 0.89 90 1007.7
20260507010705 6 235 1.6 3.2 0.00 0.91 0.89 89 1007.6
20260507010205 6 235 1.6 4.8 0.00 0.91 0.89 89 1007.5
20260507004705 6 235 1.6 3.2 0.00 0.91 0.89 88 1007.4
20260507004205 6 235 1.6 1.6 0.00 0.91 0.89 88 1007.4
20260507002705 7 235 0.0 1.6 0.00 0.91 0.89 87 1007.4
20260507002205 7 235 1.6 1.6 0.00 0.91 0.89 87 1007.4
20260507000704 7 235 1.6 3.2 0.00 0.91 0.89 86 1007.1
20260507000205 7 235 1.6 4.8 0.00 0.91 0.89 85 1007.1
20260506234705 7 235 3.2 4.8 0.00 0.91 0.89 85 1007.1
20260506234205 7 235 3.2 4.8 0.00 0.91 0.89 85 1007.0
20260506232705 7 235 4.8 4.8 0.00 0.91 0.89 85 1007.0
20260506232205 7 235 3.2 4.8 0.00 0.91 0.89 85 1006.9
20260506230705 7 235 3.2 4.8 0.00 0.91 0.89 85 1006.9
20260506230205 7 235 3.2 4.8 0.00 0.91 0.89 84 1007.0
20260506224705 7 235 3.2 4.8 0.00 0.91 0.89 85 1006.8
20260506224205 7 235 3.2 8.0 0.00 0.91 0.89 85 1007.0
20260506222705 7 235 4.8 8.0 0.00 0.91 0.89 84 1006.9
20260506222205 7 234 3.2 8.0 0.00 0.91 0.89 84 1006.9
20260506220705 7 234 3.2 4.8 0.00 0.91 0.89 84 1007.0
20260506220205 7 234 3.2 4.8 0.00 0.91 0.89 84 1007.0
20260506214705 7 234 3.2 4.8 0.00 0.91 0.89 84 1006.9
20260506214205 7 234 3.2 8.0 0.00 0.91 0.89 84 1007.0
20260506212704 8 234 4.8 8.0 0.00 0.91 0.89 84 1007.1